Regional Weather Roundup
Issued by NWS

Home | Current Version | Previous Version | Text Only | Print | Product List | Glossary On
Versions: 1 2 3 4 5 6 7 8 9 10 11 12 13 14 15 16 17 18 19 20 21 22 23 24 25 26 27 28 29 30 31 32 33 34 35 36 37 38 39 40 41 42 43 44 45 46 47 48 49 50
000
ASUS43 KLOT 201010
RWRIL

ILLINOIS REGIONAL WEATHER ROUNDUP
NATIONAL WEATHER SERVICE CHICAGO/ROMEOVILLE IL
500 AM CDT WED AUG 20 2014

NOTE: "FAIR" INDICATES FEW OR NO CLOUDS BELOW 12,000 FEET WITH NO
SIGNIFICANT WEATHER AND/OR OBSTRUCTIONS TO VISIBILITY.

* THESE STATIONS ARE NOT UNDER NWS QUALITY CONTROL. THEY ALSO MAY NOT
  REPORT WEATHER SUCH AS PRECIPITATION OR FOG.

ILZ001-002-007-009-015-016-024-201100-
NORTHWEST ILLINOIS

CITY           SKY/WX    TMP DP  RH WIND       PRES   REMARKS
MOLINE         CLEAR     62  60  93 CALM      29.82S
STERLING*      CLEAR     61  57  88 CALM      29.83S
SAVANNA*       CLEAR     63  60  91 CALM      29.82F
$$

ILZ003-004-008-010-011-017-018-201100-
NORTH CENTRAL ILLINOIS

CITY           SKY/WX    TMP DP  RH WIND       PRES   REMARKS
ROCKFORD       PTCLDY    63  60  90 CALM      29.85R
FREEPORT*      PTCLDY    64  61  91 W3        29.85S
ROCHELLE*      CLEAR     59  58  95 CALM      29.83F
DE KALB*       CLEAR     64  60  89 W5        29.84S
PERU*          CLEAR     65  63  92 CALM      29.84S
$$

ILZ005-006-012>014-019>023-201100-
NORTHEAST ILLINOIS

CITY           SKY/WX    TMP DP  RH WIND       PRES   REMARKS
CHICAGO-OHARE  CLEAR     67  60  78 W6        29.82R
CHICAGO-MIDWAY PTCLDY    70  65  84 W7        29.82R
AURORA         CLEAR     61  58  90 CALM      29.84R
LANSING*       CLEAR     66  64  94 W3        29.83S
JOLIET*        CLEAR     63  60  88 CALM      29.84S
WAUKEGAN       CLEAR     64  62  93 CALM      29.82R
DUPAGE AIRPORT CLEAR     64  61  90 CALM      29.83R
KANKAKEE*        N/A     62  61  98 CALM      29.85R FOG
WHEELING       CLEAR     68  63  84 CALM      29.84R
MORRIS*        CLEAR     62  62 100 CALM      29.83S
ROMEOVILLE*    CLEAR     64  63  96 W3        29.84R
NORTHERLY ISL    N/A     71  63  75 W5          N/A
$$

LMZ740>746-201100-
SOUTHERN LAKE MICHIGAN

STATION/POSITION SKY/WX   TEMP    WIND        PRES    VSBY  WAVE
                          AIR SEA DIR/SP/G                  HT/PER
                          (F)     (DEG/KT/KT) (MB)    (MI)  (FT/S)
SOUTHERN BUOY              67 66  280/  6/  6 1009.1R         1
WAUKEGAN HARBOR            68     250/  5/  8   N/A
HARRISON CRIB              71     270/ 10/ 11   N/A
BURNHAM HARBOR             71     250/  4/  8   N/A
CALUMET HARBOR             69     260/  2/  5 1008.8R
BURNS HARBOR               71     240/  7/ 10   N/A
MICHIGAN CITY              71     220/  9/ 10   N/A
MICHIGAN CITY 6N           71 70  260/  8/ 10   N/A           1/ 2
ST. JOSEPH                 70 70  260/  8/ 10   N/A           1/ 3
$$

ILZ025>027-034>036-040-047-049-050-058-095>099-201100-
WEST-CENTRAL ILLINOIS

CITY           SKY/WX    TMP DP  RH WIND       PRES   REMARKS
QUINCY         LGT RAIN  72  71  97 CALM      29.86R
GALESBURG*     CLEAR     59  58  98 S5        29.86R FOG
MACOMB*        CLEAR     64  64 100 SW6       29.88R
JACKSONVILLE*  MOCLDY    71  71  98 CALM      29.88R
PITTSFIELD*    MOCLDY    71  68  92 CALM      29.87R
$$

ILZ028>032-037-038-041>044-048-051>054-059>061-201100-
CENTRAL ILLINOIS

CITY           SKY/WX    TMP DP  RH WIND       PRES   REMARKS
PONTIAC        FOG       63  63 100 CALM      29.84S VSB 1/2
DECATUR        CLEAR     69  67  93 S6        29.87R
PEORIA         CLEAR     66  63  90 CALM      29.86R FOG
LACON*         CLEAR     62  61  96 CALM      29.83S FOG
LINCOLN*       FOG       65  64  96 CALM      29.84R VSB 1/4
SPRINGFIELD    MOCLDY    67  66  97 SW5       29.87R FOG
TAYLORVILLE    MOCLDY    64  64 100 CALM      29.88R FOG
$$

ILZ033-039-045-046-055>057-062-063-201100-
EAST-CENTRAL ILLINOIS

CITY           SKY/WX    TMP DP  RH WIND       PRES   REMARKS
CHAMPAIGN      FOG       62  62 100 CALM      29.86S VSB 1/4
DANVILLE*        N/A     63  63  99 CALM      29.84R FOG
RANTOUL*       CLEAR     67  64  91 CALM      29.87R
MATTOON        CLEAR     72  70  93 SW6       29.86R
PARIS*           N/A     65  65 100 CALM      29.87R FOG
$$

ILZ079-100>102-201100-
SOUTHWEST ILLINOIS

CITY           SKY/WX    TMP DP  RH WIND       PRES   REMARKS
ALTON          CLEAR     69  69 100 CALM      29.87R FOG
BELLEVILLE     CLEAR     71  71 100 CALM      29.86R FOG
CAHOKIA*       CLEAR     70  69  97 CALM      29.86R
SPARTA*        CLEAR     69  68  98 CALM      29.88S
$$

ILZ064>066-069>071-074>076-080>082-084>086-088>090-092>094-201100-
SOUTH-CENTRAL ILLINOIS

CITY           SKY/WX    TMP DP  RH WIND       PRES   REMARKS
CARBONDALE     CLEAR     68  66  93 CALM      29.87R
CAIRO*           N/A     78  75  90 SW5       29.87R HX  81
MARION         CLEAR     70  70 100 CALM      29.88R
MT. VERNON     CLEAR     66  63  88 CALM      29.88R
CENTRALIA*     CLEAR     67  65  94 CALM      29.87S FOG
SALEM*         CLEAR     70  69  98 CALM      29.87S FOG
$$

ILZ067-068-072-073-078-083-087-091-201100-
SOUTHEAST ILLINOIS

CITY           SKY/WX    TMP DP  RH WIND       PRES   REMARKS
LAWRENCEVILLE  PTCLDY    70  69  97 CALM      29.88R FOG
FLORA*           N/A     66  66  99 CALM      29.88R FOG
FAIRFIELD*     CLEAR     68  68 100 MISG      29.87S FOG
HARRISBURG*    CLEAR     67  67 100 CALM      29.88S
ROBINSON*      FOG       69  69  98 S3        29.88R VSB 3/4
CARMI*         CLEAR     68  68 100 CALM      29.87S
$$

ABBREVIATIONS USED IN REMARKS
   TC - TEMPERATURE IN CELSIUS
  WCI - WIND CHILL INDEX
   HX - HEAT INDEX
  VSB - VISIBILITY
$$




USA.gov is the U.S. government's official web portal to all federal, state and local government web resources and services.